星链-32839 (STARLINK-32839)

导读

STARLINK-32839是美国(US)SpaceX星链星座的一颗卫星,于2025年2月23日发射升空,属于星链项目低轨卫星互联网星座的组网卫星,承担卫星互联网相关通信服务任务,延续了星链星座持续扩展低轨卫星网络覆盖,提升全球宽带互联网服务能力的布局。

基本信息
目录编号:
63077
目录名称:
STARLINK-32839
国际标识:
2025-037A
轨道中心:
EARTH
卫星名称:
星链-32839
卫星全名:
星链-32839 (STARLINK-32839)
卫星状态:
在轨 (已飞行476 天)
发射日期:
2025-02-23 UTC
国别 :
美国 (US)
星等 :
--
轨道信息
数据来源 国际轨道数据 AOE轨道数据
星历时间 2026-06-13T21:58:17+0800
17小时前
查看轨道信息
2026-06-12T05:00:00+0800
2天前
查看轨道信息
半长轴 6950.174km 6950.188km
偏心率 0.0002653 0.0003197
轨道倾角 70.002° 70.001°
近地点辐角 264.572° 260.636°
升交点赤经 112.766° 117.071°
平近点角 95.514° 253.763°
近地点 570.193km 569.829km
远地点 573.881km 574.273km
周期 96.107分钟 96.107分钟
每日圈数 14.983364 14.983317
详细信息
固有亮度:
5
最大亮度:
2.5
卫星平台:
Starlink V1.0
覆盖范围:
全球
运营商:
太空探索技术公司
运营商所在国:
美国
制造商(研发单位):
太空探索技术公司
制造商所在国:
美国
使用方式:
暂无
卫星简介
Starlink 计划是 SpaceX 推出的全球卫星互联网项目,通过发射低轨道卫星,为全球尤其是偏远地区提供高速、低延迟的互联网服务。自 2019 年起,Starlink 已部署数千颗卫星,旨在缩小全球数字鸿沟,推动互联网普及。该项目还为军事、航空等行业提供通信支持,带来广泛经济效益。
2D轨道图
3D轨道图
轨道高度分析图
轨道倾角分析图
轨道综合分析图
查看轨道综合分析图